Weather in Klyuchi

Russia / Omsk Oblast     55°09′06″N   73°13′03″E
temp.,
°C
wind,
m/s
gust,
m/s
humid.,
%
clouds,
%
prec.,
mm/h
press.,
hPa
HPBL,
m
20 may, fri
fri2000:00+12sw6135424 0.0 1007509
03:00+12sw7145812 0.0 1007496
06:00+11wsw7136548 0.0 1008692
09:00+15sw711486 0.0 10091467
12:00+16ssw11125294 0.0 10081659
15:00+16wsw11145234 0.2 10061887
18:00+15w8155498 0.9 10082197
21:00+13wnw5114649 0.0 1010412
21 may, sat
sat2100:00+8nw22655 0.0 101124
03:00+8s1163100 0.0 101111
06:00+8e3470100 0.9 1010177
09:00+11ese796789 0.4 1007443
12:00+22s7114097 0.4 10031115
15:00+29ssw8132474 0.0 10003644
18:00+28s7112448 0.0 9982266
21:00+21se51337100 0.0 997193
22 may, sun
sun2200:00+20se61633100 0.0 995269
03:00+21se8173213 0.0 993439
06:00+19s6113984 0.0 993325
09:00+19wsw5660100 0.0 994741
12:00+21sw6751100 0.2 9951704
15:00+13sw51082100 1.4 997758
18:00+13ssw7125995 1.6 997955
21:00+12ssw9146015 0.0 998794
23 may, mon
mon2300:00+9sw8147119 0.1 10041249
03:00+8ssw613645 0.0 1008704
06:00+8ssw712685 0.0 1010740
09:00+12sw814505 0.0 10121922
12:00+15ssw71241100 0.0 10122248
15:00+18ssw81436100 0.0 10102539
18:00+13s81764100 0.8 10091095
21:00+15ssw81564100 0.1 1008869
24 may, tue
tue2400:00+14s71664100 0.1 1008457
03:00+14ssw7156515 0.0 1009432
06:00+14ssw5118395 0.0 1010446
09:00+17sw7116496 0.0 10131163
12:00+21wsw61052100 0.0 10131559
15:00+24wsw4841100 0.0 10132201
18:00+24w354471 0.0 10131079
21:00+18nne46717 0.0 101494